{"data":{"norad_id":58070,"intl_designator":"2023-158V","name":"STARLINK-30532","alt_names":[],"object_type":"PAYLOAD","status":"ACTIVE","operator":null,"country":"US","launch_date":"2023-10-13","launch_site_code":"AFETR","launch_vehicle":null,"mission":null,"orbit_class":"UNKNOWN","rcs_meters":null,"size_class":null,"mass_kg":null,"dimensions":null,"purposes":["comms"],"wikipedia_slug":null,"has_3d_model":false,"image_url":null,"decayed_at":null,"tle_current":{"epoch":"2026-09-20T13:36:09.869760Z","epoch_age_seconds":131915,"freshness":"FRESH","line1":"1 58070U 23158V   26263.56678090  .00001017  00000+0  46476-4 0  9998","line2":"2 58070  43.0032   6.5053 0001397 267.3475  92.7216 15.27582712163374","mean_motion":15.27582712,"eccentricity":0.0001397,"inclination_deg":43.0032,"raan_deg":6.5053,"arg_perigee_deg":267.3475,"mean_anomaly_deg":92.7216,"bstar":4.6476e-5,"rev_number":16337,"period_min":94.266581356807,"perigee_km":482.08246878487,"apogee_km":483.99948191119,"semimajor_km":6861.177975348,"source":"CELESTRAK","updated_at":"2026-09-21T09:00:33.780882Z"}}}